map of NDR home
Great Circle Mapper logo
NDR - Airport
Location
City:  Nador, Morocco
Name:Arwi
ICAO / IATA:GMMW / NDR

Details
Type:Airport (Aerodrome, Airfield)
Use:Public/Civil
Latitude:3459'20"N (34.988781)
Longitude:301'42"W (-3.028205)
Datum:WGS 1984
Elevation:574 ft (175 m)
Variation:0.9W (WMM2010 magnetic declination)
Runways:1
Longest:9842 × 148 ft (3000 × 45 m), paved

Time
Time Zone:UTC+0 (DST+1)
Local Time:

Weather
METAR:GMMW 290100Z VRB02KT 9999 FEW020 SCT080 09/05 Q0989 NOSIG
TAF:GMMW 282300Z 2900/3006 VRB02KT 9999 FEW020 SCT080
BECMG 2909/2911 29005KT
BECMG 2920/2922 SCT020 BKN100 BKN200
TEMPO 3000/3006 27010KT SCT020TCU BKN100 PROB30
TEMPO 3000/3006 6000 RA

Related Locations
Nearby:
Farthest:NZOX: 12318 mi / 19824 km
Okiwi Station, NZ

Find:

   beyond  
but within

Other Information
Maps:
NOTAMs:
Links:
Sources:

  
flag of Morocco   

Sectional Chart

Flight Planning
at skyvector.com

Satellite Image

Google Maps Satellite View

 

Copyright © 2004-2014 Karl L. Swartz. All rights reserved.
The Great Circle Mapper name and logo are trademarks of the Great Circle Mapper.
All other trademarks mentioned herein belong to their respective owners.
Please see credits for attibutions and further copyright information.

  Follow gcmap on Facebook Follow gcmap on Twitter

hCard Microformat

Geo Microformat